Temp
-8 -7 -8 -9 -8 -8 -8 -7 -6 -6 -6 -4 -4 -4 -3 -3 -3 -3 -4 -4 -5 -4 -4 -5 -5 -5 -5 -5 -4 -4 -4 -4 -5 -4 -4 -4 -4 -4 -4 -4 -4 -4 -4 -4 -4 -5 -5 -3 -4 -4 -3 -4 -4 -4
-7 -7 -8 -8 -8 -8 -8 -6 -5 -6 -6 -5 -5 -4 -3 -4 -3 -3 -4 -4 -5 -5 -5 -5 -5 -5 -5 -4 -5 -4 -4 -4 -4 -4 -4 -4 -4 -4 -4 -4 -4 -4 -4 -4 -4 -4 -4 -4 -4 -4 -4 -5 -5 -5
-7 -7 -7 -7 -7 -7 -6 -5 -4 -5 -6 -5 -5 -5 -3 -4 -3 -3 -4 -4 -5 -5 -5 -5 -5 -5 -5 -5 -5 -5 -4 -4 -4 -4 -4 -4 -4 -4 -4 -4 -4 -4 -4 -5 -4 -4 -4 -4 -4 -5 -5 -5 -5 -5
-7 -6 -7 -7 -7 -7 -6 -5 -5 -5 -6 -5 -5 -5 -4 -3 -3 -4 -5 -5 -5 -6 -5 -5 -5 -5 -5 -5 -5 -5 -5 -5 -4 -4 -4 -4 -4 -4 -4 -4 -4 -4 -4 -5 -5 -5 -5 -5 -5 -5 -5 -6 -6 -5
-7 -6 -7 -6 -7 -6 -7 -4 -6 -5 -6 -5 -6 -5 -5 -4 -4 -4 -5 -5 -6 -6 -5 -4 -5 -5 -5 -5 -5 -5 -5 -5 -5 -5 -5 -5 -5 -5 -4 -5 -5 -5 -5 -5 -5 -5 -5 -5 -6 -6 -6 -7 -7 -7
-6 -6 -6 -6 -7 -6 -5 -5 -6 -5 -6 -5 -6 -5 -5 -4 -3 -4 -5 -5 -6 -5 -5 -5 -5 -5 -5 -5 -5 -5 -5 -5 -5 -5 -4 -5 -5 -5 -5 -5 -5 -5 -5 -5 -6 -6 -6 -7 -7 -7 -7 -7 -7 -7
-6 -6 -6 -6 -6 -5 -5 -5 -5 -6 -6 -6 -5 -5 -4 -4 -4 -5 -4 -5 -5 -6 -5 -4 -5 -5 -5 -5 -4 -4 -4 -4 -5 -4 -5 -5 -5 -5 -5 -5 -5 -5 -6 -6 -6 -6 -6 -7 -7 -7 -7 -7 -7 -7
-6 -6 -6 -6 -6 -6 -5 -5 -5 -6 -6 -6 -6 -5 -5 -4 -4 -5 -4 -5 -5 -5 -4 -3 -4 -4 -4 -4 -4 -4 -4 -4 -4 -4 -4 -4 -5 -5 -5 -5 -5 -5 -6 -6 -7 -7 -7 -7 -7 -7 -7 -8 -8 -8
-6 -6 -6 -6 -6 -6 -5 -5 -5 -6 -6 -5 -6 -4 -4 -4 -4 -4 -5 -5 -5 -4 -3 -3 -3 -3 -4 -4 -4 -4 -4 -4 -4 -4 -4 -5 -5 -5 -5 -5 -6 -6 -6 -7 -7 -7 -7 -7 -8 -8 -8 -9 -8 -8
-6 -6 -6 -6 -6 -6 -5 -5 -5 -6 -6 -6 -5 -5 -5 -5 -5 -5 -5 -5 -4 -4 -3 -3 -2 -2 -3 -3 -4 -4 -4 -4 -4 -4 -4 -5 -5 -5 -5 -6 -6 -6 -7 -7 -8 -8 -8 -8 -9 -9 -9 -9 -9 -9
-6 -7 -7 -6 -6 -6 -5 -5 -5 -7 -6 -6 -6 -6 -5 -5 -5 -6 -5 -4 -4 -3 -3 -2 -2 -2 -3 -3 -3 -3 -3 -3 -4 -4 -5 -5 -3 -4 -4 -5 -5 -6 -7 -8 -8 -9 -9 -9 -9 -9 -10 -10 -10 -11
-7 -7 -7 -6 -6 -5 -5 -5 -5 -6 -6 -6 -6 -6 -6 -6 -6 -5 -4 -4 -3 -2 -2 -2 -1 -2 -2 -3 -3 -3 -3 -3 -4 -5 -5 -4 -4 -4 -5 -5 -6 -7 -8 -8 -9 -9 -10 -10 -10 -10 -10 -11 -11 -12
-7 -7 -6 -6 -6 -5 -5 -6 -6 -7 -6 -7 -7 -6 -6 -5 -5 -4 -4 -3 -2 -1 -1 -1 -2 -2 -3 -2 -3 -3 -3 -3 -4 -5 -4 -4 -5 -5 -6 -7 -8 -8 -8 -9 -9 -10 -10 -11 -11 -12 -12 -12 -12 -12
-7 -7 -7 -7 -6 -6 -6 -7 -6 -7 -8 -8 -7 -6 -5 -4 -4 -3 -3 -2 -1 -0 -1 -1 -1 -2 -2 -3 -3 -3 -4 -4 -5 -5 -4 -5 -6 -6 -7 -8 -9 -9 -9 -10 -10 -11 -11 -12 -12 -12 -12 -12 -12 -13
-8 -8 -8 -8 -8 -7 -7 -7 -8 -8 -8 -7 -6 -5 -4 -3 -3 -3 -2 -1 -1 -1 -1 -2 -2 -2 -2 -3 -3 -3 -4 -4 -5 -5 -5 -5 -6 -7 -8 -9 -9 -10 -10 -11 -11 -12 -12 -12 -12 -12 -13 -13 -13 -13
-9 -9 -9 -8 -8 -8 -8 -8 -9 -8 -8 -7 -5 -4 -4 -3 -3 -2 -2 -1 -1 -2 -2 -2 -2 -2 -3 -3 -3 -3 -4 -4 -5 -5 -6 -7 -7 -8 -9 -9 -10 -10 -10 -11 -12 -12 -12 -12 -12 -12 -13 -13 -14 -14
-10 -9 -9 -9 -8 -8 -9 -9 -9 -8 -8 -6 -4 -3 -3 -2 -3 -2 -2 -2 -2 -2 -3 -2 -2 -3 -3 -4 -4 -4 -4 -5 -5 -6 -7 -8 -8 -9 -9 -10 -10 -11 -11 -11 -12 -13 -13 -13 -13 -13 -13 -13 -14 -14
-10 -9 -9 -9 -9 -9 -10 -9 -9 -9 -8 -5 -4 -3 -3 -3 -3 -2 -3 -3 -2 -3 -3 -2 -3 -3 -3 -4 -5 -5 -5 -5 -6 -7 -8 -8 -9 -9 -10 -10 -10 -11 -11 -12 -12 -13 -13 -13 -13 -14 -14 -14 -14 -14
-9 -10 -9 -8 -8 -9 -9 -9 -9 -8 -7 -5 -3 -3 -3 -3 -3 -3 -3 -3 -3 -3 -3 -3 -4 -4 -4 -5 -5 -5 -5 -6 -7 -8 -9 -9 -10 -10 -10 -10 -11 -11 -12 -12 -13 -13 -13 -13 -14 -14 -14 -14 -14 -15
-10 -10 -8 -8 -8 -9 -9 -9 -9 -7 -6 -4 -4 -3 -3 -4 -4 -4 -4 -4 -3 -4 -4 -4 -5 -5 -5 -5 -5 -6 -6 -7 -8 -8 -9 -10 -10 -10 -11 -11 -11 -12 -13 -13 -13 -13 -13 -14 -14 -15 -15 -15 -15 -15
-11 -9 -9 -9 -9 -9 -10 -9 -8 -8 -6 -4 -4 -4 -4 -4 -4 -4 -4 -4 -4 -5 -5 -5 -5 -6 -5 -5 -6 -6 -7 -8 -8 -9 -9 -9 -10 -10 -11 -11 -12 -13 -13 -13 -13 -13 -13 -14 -14 -15 -15 -16 -16 -16
-9 -9 -9 -9 -10 -10 -9 -9 -8 -8 -6 -5 -5 -5 -5 -5 -5 -5 -4 -5 -5 -5 -5 -5 -6 -6 -6 -6 -6 -7 -8 -8 -9 -9 -10 -10 -10 -11 -11 -12 -12 -12 -13 -13 -13 -13 -14 -14 -15 -15 -15 -16 -16 -16
-9 -9 -9 -10 -11 -10 -10 -8 -7 -7 -6 -6 -6 -6 -5 -5 -5 -5 -5 -5 -5 -5 -5 -6 -6 -6 -6 -6 -7 -8 -8 -9 -9 -10 -10 -10 -11 -11 -12 -12 -13 -13 -12 -13 -14 -14 -15 -15 -16 -16 -16 -16 -16 -16
-9 -10 -11 -11 -10 -10 -10 -9 -7 -6 -7 -7 -7 -6 -6 -6 -6 -5 -5 -5 -5 -6 -6 -6 -6 -6 -7 -7 -8 -8 -8 -9 -9 -10 -11 -11 -11 -12 -12 -12 -13 -13 -13 -13 -14 -14 -15 -15 -16 -16 -16 -16 -17 -17
-10 -10 -10 -11 -9 -9 -9 -7 -6 -6 -6 -7 -7 -6 -5 -6 -5 -5 -5 -5 -5 -6 -6 -6 -6 -7 -8 -8 -8 -8 -9 -9 -9 -10 -11 -11 -11 -12 -12 -12 -13 -13 -13 -13 -14 -14 -15 -15 -16 -16 -16 -17 -17 -17
-10 -10 -10 -10 -8 -8 -8 -7 -6 -5 -6 -6 -6 -6 -6 -5 -5 -6 -6 -6 -6 -6 -6 -6 -7 -8 -8 -8 -8 -8 -9 -9 -10 -10 -11 -11 -11 -11 -11 -12 -12 -13 -13 -13 -14 -14 -15 -15 -16 -16 -16 -17 -17 -17
-10 -10 -9 -8 -8 -8 -7 -6 -5 -5 -6 -5 -5 -6 -6 -6 -6 -6 -6 -6 -6 -6 -7 -7 -8 -8 -8 -8 -8 -8 -9 -10 -10 -11 -11 -12 -12 -12 -12 -12 -12 -12 -13 -13 -14 -15 -15 -16 -16 -16 -17 -17 -17 -17
-9 -8 -8 -7 -7 -7 -6 -6 -5 -6 -6 -7 -7 -7 -7 -7 -7 -6 -6 -6 -6 -7 -7 -7 -8 -8 -8 -8 -8 -9 -10 -10 -11 -12 -12 -12 -12 -12 -12 -12 -12 -12 -13 -13 -14 -15 -16 -16 -16 -16 -17 -17 -17 -16
-8 -7 -7 -7 -7 -6 -6 -7 -6 -6 -6 -6 -6 -6 -7 -7 -6 -6 -6 -7 -7 -7 -7 -8 -8 -8 -8 -8 -9 -9 -10 -11 -12 -12 -12 -12 -12 -12 -12 -12 -13 -13 -13 -14 -14 -15 -16 -16 -16 -17 -17 -17 -16 -16
-7 -7 -6 -6 -6 -7 -7 -8 -8 -8 -7 -7 -6 -6 -7 -7 -7 -7 -7 -7 -7 -8 -8 -8 -8 -8 -8 -9 -10 -10 -11 -12 -12 -11 -12 -12 -12 -12 -12 -13 -13 -13 -13 -14 -14 -15 -16 -16 -16 -16 -16 -16 -16 -16
-7 -7 -7 -6 -6 -6 -8 -9 -8 -8 -8 -7 -7 -7 -7 -7 -7 -7 -7 -7 -8 -8 -8 -8 -8 -9 -9 -10 -11 -11 -11 -12 -12 -12 -12 -12 -12 -13 -13 -13 -13 -13 -14 -14 -14 -15 -15 -16 -16 -16 -16 -16 -16 -15
-7 -7 -7 -6 -7 -8 -8 -9 -9 -8 -8 -8 -7 -7 -7 -7 -7 -7 -8 -8 -8 -9 -9 -9 -9 -9 -10 -11 -11 -12 -12 -12 -12 -12 -12 -13 -13 -13 -13 -13 -13 -14 -14 -14 -14 -15 -15 -15 -16 -16 -16 -16 -16 -15
-8 -7 -8 -8 -9 -9 -9 -9 -8 -8 -8 -8 -8 -7 -7 -8 -8 -8 -8 -9 -9 -9 -9 -9 -9 -10 -11 -11 -12 -12 -12 -12 -12 -13 -13 -13 -13 -14 -14 -14 -14 -14 -15 -15 -15 -15 -15 -15 -16 -16 -16 -16 -16 -16
Height
2954 2950 2947 2944 2939 2936 2934 2933 2933 2934 2933 2936 2940 2945 2951 2954 2960 2965 2970 2975 2979 2983 2987 2991 2996 3001 3004 3008 3012 3015 3020 3023 3026 3029 3031 3031 3031 3033 3034 3034 3034 3035 3037 3038 3039 3040 3038 3036 3037 3039 3040 3038 3037 3037
2950 2948 2944 2942 2939 2937 2935 2934 2937 2939 2938 2939 2941 2947 2953 2957 2961 2965 2971 2976 2979 2984 2988 2991 2995 2999 3003 3007 3012 3014 3018 3020 3023 3026 3029 3030 3030 3031 3032 3032 3033 3035 3035 3035 3036 3035 3034 3033 3034 3034 3035 3035 3035 3034
2948 2946 2942 2939 2938 2935 2935 2936 2939 2940 2940 2940 2944 2950 2955 2959 2963 2967 2972 2977 2980 2984 2988 2990 2992 2997 3001 3005 3009 3014 3016 3019 3022 3024 3026 3028 3029 3030 3030 3030 3031 3031 3032 3032 3033 3031 3032 3033 3032 3032 3031 3030 3029 3028
2944 2944 2939 2937 2935 2934 2936 2937 2941 2942 2943 2944 2947 2952 2956 2961 2966 2970 2973 2977 2981 2984 2986 2989 2992 2995 2999 3003 3007 3011 3015 3018 3020 3022 3024 3026 3027 3028 3028 3029 3029 3029 3029 3029 3028 3028 3028 3028 3028 3027 3027 3026 3024 3021
2938 2939 2936 2935 2934 2935 2936 2939 2942 2943 2944 2946 2949 2953 2958 2963 2967 2970 2973 2977 2980 2986 2985 2987 2991 2995 2998 3002 3005 3008 3012 3015 3018 3020 3021 3023 3025 3026 3026 3026 3025 3026 3026 3026 3025 3025 3024 3023 3022 3021 3021 3019 3018 3016
2932 2934 2932 2932 2932 2933 2935 2938 2940 2943 2943 2946 2950 2954 2961 2965 2967 2971 2973 2977 2979 2983 2984 2987 2991 2993 2997 3000 3003 3006 3010 3012 3014 3017 3018 3020 3022 3024 3023 3022 3022 3021 3022 3022 3022 3020 3020 3020 3019 3018 3016 3015 3013 3010
2928 2929 2929 2929 2930 2932 2934 2938 2942 2944 2944 2949 2952 2957 2963 2967 2969 2972 2976 2978 2979 2983 2987 2989 2990 2993 2996 3000 3002 3005 3008 3010 3013 3015 3016 3016 3018 3019 3019 3018 3018 3019 3019 3018 3017 3016 3016 3015 3014 3012 3011 3008 3005 3003
2923 2924 2925 2925 2928 2930 2934 2939 2942 2944 2945 2950 2956 2960 2965 2968 2969 2973 2975 2977 2982 2985 2987 2989 2990 2993 2996 2999 3002 3005 3007 3010 3011 3013 3014 3015 3016 3016 3015 3013 3014 3014 3014 3013 3012 3011 3011 3010 3008 3006 3004 3001 2999 2996
2918 2918 2920 2923 2925 2928 2934 2938 2942 2944 2947 2951 2958 2963 2967 2970 2972 2974 2976 2980 2983 2987 2987 2988 2989 2993 2997 2999 3002 3006 3008 3009 3011 3011 3013 3014 3013 3013 3011 3011 3011 3011 3011 3010 3009 3008 3007 3004 3002 2999 2996 2993 2990 2986
2911 2913 2915 2918 2921 2926 2932 2936 2941 2944 2948 2952 2959 2964 2968 2970 2974 2977 2981 2984 2985 2986 2986 2985 2988 2990 2995 2998 3002 3006 3007 3009 3009 3010 3011 3010 3008 3008 3008 3009 3008 3007 3007 3006 3005 3003 3002 2999 2996 2993 2989 2985 2980 2975
2904 2906 2908 2912 2916 2922 2927 2933 2939 2944 2949 2954 2958 2964 2968 2971 2975 2980 2982 2984 2985 2985 2984 2985 2988 2990 2996 2999 3002 3005 3005 3006 3006 3006 3007 3005 3003 3004 3005 3004 3004 3004 3002 3001 2999 2997 2994 2990 2986 2982 2979 2975 2970 2965
2897 2899 2901 2904 2910 2916 2922 2929 2936 2942 2951 2958 2962 2967 2970 2974 2977 2979 2979 2981 2981 2982 2982 2986 2988 2992 2996 2999 3002 3004 3003 3004 3002 3004 3004 3001 3002 3002 3002 3002 3001 2999 2997 2996 2993 2991 2987 2983 2978 2974 2970 2965 2960 2956
2890 2892 2896 2900 2904 2910 2918 2926 2936 2945 2951 2958 2964 2968 2969 2971 2971 2971 2971 2973 2975 2976 2980 2984 2989 2992 2997 3000 3001 3002 3001 3001 3002 3001 3000 3001 3000 3000 2999 2998 2996 2994 2992 2990 2986 2982 2978 2974 2970 2966 2961 2957 2952 2948
2883 2887 2892 2898 2902 2909 2917 2925 2934 2942 2951 2958 2961 2965 2965 2965 2965 2966 2968 2971 2975 2977 2981 2986 2990 2993 2995 2998 2999 2999 3000 3000 2998 2998 2998 2999 2998 2996 2995 2994 2992 2989 2985 2981 2977 2974 2971 2966 2962 2958 2953 2948 2943 2939
2877 2883 2890 2896 2902 2909 2917 2923 2930 2940 2949 2955 2959 2960 2959 2960 2961 2964 2967 2971 2974 2977 2983 2987 2991 2993 2995 2996 2997 2997 2997 2997 2996 2996 2996 2995 2994 2992 2990 2987 2985 2982 2978 2973 2970 2966 2963 2958 2954 2949 2945 2940 2935 2931
2872 2879 2886 2891 2898 2908 2916 2922 2929 2937 2945 2952 2953 2954 2955 2956 2959 2962 2965 2969 2974 2978 2983 2987 2990 2992 2994 2994 2994 2994 2994 2994 2995 2994 2993 2992 2989 2986 2984 2981 2978 2974 2970 2966 2962 2957 2953 2949 2944 2940 2936 2933 2927 2923
2866 2873 2880 2888 2898 2907 2914 2921 2929 2937 2944 2947 2949 2950 2952 2955 2958 2961 2965 2969 2974 2979 2983 2987 2988 2990 2992 2992 2992 2992 2992 2993 2991 2990 2989 2987 2984 2981 2978 2975 2970 2967 2963 2958 2953 2949 2945 2941 2936 2931 2926 2923 2918 2914
2860 2871 2879 2888 2896 2905 2913 2919 2925 2931 2937 2942 2946 2949 2951 2954 2957 2960 2965 2970 2975 2979 2983 2986 2987 2988 2988 2989 2990 2990 2989 2988 2987 2986 2983 2981 2979 2975 2971 2968 2964 2959 2954 2949 2944 2940 2936 2932 2926 2922 2916 2912 2908 2905
2862 2869 2877 2885 2892 2901 2909 2918 2922 2928 2934 2940 2944 2947 2950 2953 2957 2962 2967 2972 2976 2980 2983 2985 2986 2986 2987 2987 2987 2986 2985 2983 2982 2981 2979 2976 2973 2970 2966 2961 2956 2951 2945 2940 2936 2931 2926 2922 2917 2911 2906 2902 2898 2895
2861 2869 2876 2886 2896 2903 2908 2914 2921 2927 2931 2937 2942 2946 2949 2954 2959 2964 2968 2972 2976 2979 2981 2983 2984 2984 2984 2985 2984 2983 2981 2979 2978 2976 2975 2971 2968 2964 2959 2953 2948 2942 2937 2932 2927 2921 2916 2912 2908 2902 2898 2893 2888 2884
2859 2865 2877 2884 2890 2898 2902 2910 2918 2924 2931 2935 2939 2944 2949 2954 2959 2963 2967 2971 2975 2978 2979 2980 2980 2981 2982 2981 2980 2978 2977 2974 2972 2970 2968 2967 2964 2958 2953 2947 2940 2934 2928 2922 2916 2910 2906 2901 2896 2891 2888 2884 2879 2875
2852 2862 2873 2882 2890 2896 2903 2907 2916 2921 2929 2932 2937 2942 2948 2954 2959 2963 2967 2971 2973 2975 2976 2976 2977 2978 2978 2977 2976 2974 2972 2969 2966 2963 2960 2956 2952 2948 2943 2936 2929 2925 2919 2912 2906 2900 2895 2890 2885 2880 2876 2873 2870 2867
2852 2863 2873 2881 2889 2895 2900 2908 2915 2921 2925 2930 2936 2942 2946 2952 2958 2963 2965 2968 2970 2972 2973 2973 2974 2974 2973 2972 2971 2970 2967 2964 2960 2957 2954 2950 2946 2939 2934 2927 2921 2916 2909 2903 2897 2891 2885 2879 2875 2870 2867 2864 2861 2859
2856 2861 2870 2879 2886 2888 2894 2902 2909 2916 2920 2927 2934 2939 2945 2951 2956 2959 2962 2966 2967 2969 2970 2970 2970 2970 2969 2968 2966 2964 2962 2960 2957 2952 2946 2942 2937 2932 2926 2920 2913 2906 2900 2893 2886 2880 2874 2869 2865 2861 2857 2855 2853 2851
2856 2866 2869 2873 2879 2885 2890 2899 2904 2911 2916 2924 2932 2937 2942 2948 2953 2956 2959 2963 2964 2966 2966 2967 2967 2966 2965 2962 2961 2959 2957 2954 2950 2946 2940 2933 2928 2924 2918 2912 2906 2898 2891 2886 2880 2874 2869 2863 2858 2854 2850 2847 2845 2845
2852 2858 2866 2870 2876 2883 2890 2897 2902 2908 2916 2924 2930 2936 2942 2947 2951 2953 2957 2960 2961 2962 2963 2963 2963 2962 2960 2958 2956 2954 2950 2947 2942 2936 2931 2925 2921 2915 2909 2903 2897 2892 2886 2879 2874 2869 2863 2858 2853 2849 2846 2843 2841 2842
2849 2854 2860 2867 2873 2883 2892 2898 2906 2912 2918 2922 2928 2935 2940 2944 2948 2950 2953 2955 2957 2958 2959 2959 2958 2957 2956 2954 2951 2948 2945 2940 2935 2930 2925 2920 2915 2908 2902 2896 2891 2886 2881 2876 2871 2865 2860 2855 2851 2847 2844 2842 2841 2841
2847 2854 2862 2869 2876 2885 2890 2896 2903 2911 2917 2922 2930 2935 2939 2941 2944 2947 2949 2951 2953 2954 2954 2954 2953 2952 2950 2948 2946 2942 2938 2934 2929 2923 2918 2913 2907 2902 2896 2891 2887 2881 2876 2871 2867 2863 2858 2854 2851 2848 2846 2844 2843 2842
2850 2856 2865 2871 2878 2884 2891 2898 2903 2909 2915 2920 2926 2930 2934 2938 2942 2944 2946 2947 2948 2949 2949 2948 2947 2946 2945 2943 2940 2936 2932 2928 2924 2920 2915 2910 2905 2899 2894 2889 2885 2879 2874 2869 2864 2860 2857 2854 2851 2848 2846 2845 2844 2843
2853 2858 2864 2871 2876 2883 2890 2897 2903 2910 2915 2920 2924 2928 2933 2936 2939 2941 2942 2943 2944 2944 2944 2943 2942 2942 2940 2937 2933 2929 2926 2922 2918 2914 2909 2905 2900 2896 2892 2887 2882 2877 2873 2868 2863 2859 2856 2853 2850 2848 2846 2845 2844 2844
2854 2862 2867 2871 2876 2882 2888 2897 2904 2910 2914 2917 2922 2926 2930 2934 2936 2937 2938 2939 2940 2939 2939 2939 2938 2937 2935 2932 2929 2924 2921 2917 2913 2908 2904 2900 2896 2893 2889 2884 2879 2875 2872 2867 2862 2859 2855 2852 2850 2848 2846 2845 2844 2844
2856 2862 2867 2870 2876 2884 2893 2898 2903 2907 2911 2916 2920 2924 2928 2930 2932 2933 2934 2934 2934 2935 2935 2934 2933 2932 2930 2927 2923 2919 2916 2912 2908 2904 2900 2897 2894 2890 2887 2882 2878 2875 2871 2866 2862 2859 2855 2852 2849 2847 2845 2844 2843 2842
2856 2861 2867 2872 2878 2884 2891 2896 2900 2905 2911 2915 2918 2921 2924 2926 2927 2929 2929 2930 2931 2931 2931 2930 2928 2926 2924 2921 2918 2914 2911 2907 2904 2901 2899 2896 2892 2889 2885 2881 2878 2874 2871 2867 2863 2860 2857 2853 2850 2847 2845 2843 2841 2839
Wind_Speed
35 32 30 26 25 23 16 13 19 12 8 11 13 19 19 26 24 22 19 19 19 15 16 22 21 21 21 23 22 22 20 20 20 15 11 6 5 8 7 7 6 10 9 10 12 6 9 12 16 15 12 12 11 13
34 29 27 22 21 16 14 11 12 15 8 9 10 17 23 22 23 21 19 18 19 17 8 18 19 18 17 21 23 17 19 18 16 16 11 9 6 8 9 6 11 7 9 5 8 7 9 7 10 11 12 12 13 16
32 26 24 20 18 9 11 9 15 11 7 7 9 19 27 20 18 17 17 17 17 15 9 15 20 21 19 18 19 19 19 12 18 16 12 10 6 7 8 11 9 13 12 11 10 13 14 14 14 15 16 16 19 23
30 24 22 17 13 6 4 4 9 11 7 10 12 17 22 19 19 18 16 17 17 13 8 18 19 20 20 19 17 17 16 16 13 13 15 13 9 7 11 12 10 13 11 13 18 19 19 19 19 21 20 19 20 21
28 21 20 15 9 3 5 6 8 13 8 13 15 20 22 19 20 19 16 17 17 13 5 19 19 17 18 18 17 17 17 16 15 14 13 15 16 13 13 13 13 14 15 15 16 16 17 19 20 20 20 22 21 21
26 19 16 12 8 6 8 9 12 13 12 11 16 28 21 20 19 17 17 21 17 14 7 18 17 18 17 16 16 15 15 15 14 15 14 13 11 11 7 7 9 12 15 17 18 18 18 19 21 22 20 21 22 21
23 16 14 10 11 11 9 8 11 16 16 16 25 21 18 19 20 20 17 17 18 11 12 10 15 18 16 16 14 14 14 13 12 12 13 10 11 13 14 14 13 12 12 14 14 15 16 18 19 20 20 21 20 21
21 13 13 11 14 15 12 11 13 19 16 24 27 21 21 22 21 20 19 17 21 14 10 6 11 18 17 16 15 14 13 13 12 11 9 11 11 10 8 12 11 11 13 14 15 15 15 17 19 21 22 24 24 27
18 14 14 15 18 20 17 16 20 21 19 29 29 22 22 23 20 19 18 24 14 8 6 6 16 18 18 16 14 13 12 11 8 11 12 8 12 10 12 12 11 12 13 14 17 19 19 21 22 25 28 30 34 38
18 17 16 18 24 25 23 24 24 21 31 33 26 25 30 21 20 21 17 15 10 6 5 6 20 15 22 20 16 11 9 9 5 11 10 14 18 17 15 14 15 15 17 18 20 21 22 24 27 30 32 35 39 42
21 19 18 23 28 31 27 32 30 31 41 30 30 32 26 21 22 15 8 9 8 5 6 14 17 17 20 18 15 10 5 5 5 6 9 6 9 9 7 8 11 13 15 18 20 23 26 29 33 35 37 39 38 34
22 20 22 27 36 38 34 38 38 44 37 29 30 28 23 18 10 7 9 9 8 8 14 18 15 19 19 15 11 7 5 4 3 4 6 4 3 2 5 8 11 13 15 18 22 25 29 33 37 37 35 34 32 32
22 22 24 32 38 39 40 41 44 36 35 30 27 26 16 11 11 9 13 11 9 14 22 20 21 17 17 11 6 4 4 5 3 4 3 1 2 7 11 13 15 17 20 23 27 32 34 32 30 30 31 31 31 30
25 27 31 38 37 44 41 41 44 41 36 31 23 19 13 9 10 11 17 16 11 17 23 22 18 14 12 10 4 3 4 3 4 4 2 5 11 13 16 17 20 22 26 28 29 29 29 29 29 29 29 29 30 30
31 34 36 46 37 36 40 47 48 43 41 28 12 13 16 14 11 14 19 21 16 23 25 21 18 10 11 4 4 4 3 3 3 3 8 15 18 19 20 22 24 25 26 27 28 28 29 31 32 31 28 28 30 31
36 34 44 56 49 39 46 51 48 47 43 24 11 14 19 16 15 15 23 21 19 28 24 19 12 6 6 4 5 5 3 3 4 12 17 20 20 20 22 23 24 25 27 29 30 32 33 34 34 33 30 29 32 32
41 39 57 54 50 43 52 54 49 46 26 18 14 19 20 16 18 20 25 24 29 26 23 12 7 6 5 4 5 4 3 10 16 19 19 19 20 21 22 23 26 29 32 34 36 35 35 35 35 36 36 34 34 34
42 38 57 54 52 45 55 54 48 22 25 25 19 20 19 17 22 25 31 30 27 24 17 9 6 7 4 5 5 7 10 13 16 16 18 19 20 21 24 27 31 35 36 37 37 37 36 36 36 35 35 35 33 32
32 40 54 50 53 57 59 56 40 20 29 30 20 18 19 24 29 33 31 28 23 17 11 6 4 6 5 4 5 9 11 13 14 15 17 19 20 24 28 32 35 37 38 37 37 36 36 36 35 35 35 36 36 33
34 42 53 48 57 58 32 47 32 22 32 33 21 19 26 34 36 33 29 24 20 14 8 4 2 1 2 6 9 11 12 14 15 16 16 20 24 27 31 36 38 37 35 34 35 38 38 37 35 34 34 34 34 31
43 42 52 56 66 41 17 47 27 26 37 30 23 31 39 39 36 32 28 22 15 9 4 1 1 3 7 10 11 13 15 17 19 20 21 23 27 32 35 37 39 36 35 36 35 34 33 34 35 33 33 32 30 28
57 54 58 67 49 23 28 39 26 38 37 27 35 44 42 38 34 29 24 17 10 5 1 2 4 7 10 12 13 15 18 19 21 24 27 32 35 37 39 42 40 36 35 34 35 36 36 36 35 33 32 30 28 25
68 61 68 59 29 16 32 39 30 38 22 38 45 42 41 37 31 26 19 14 7 2 2 5 8 11 13 14 16 18 19 21 24 27 30 34 36 40 42 38 37 36 35 36 37 37 36 35 33 32 30 29 28 25
66 71 51 27 19 12 45 38 36 40 31 43 40 39 40 35 30 23 16 10 6 4 6 8 11 14 15 16 18 19 20 22 25 30 35 38 40 38 32 33 35 36 38 37 37 36 34 32 31 30 29 28 25 24
45 39 22 23 20 35 44 40 41 43 46 38 36 38 37 31 24 20 15 10 7 7 9 11 13 14 16 18 19 20 23 27 30 33 37 37 32 28 31 33 34 36 36 34 30 27 25 26 26 27 26 24 21 17
30 17 20 27 27 45 40 38 40 41 48 36 26 36 31 27 23 13 17 13 10 9 10 12 13 14 16 17 20 23 27 31 34 34 32 29 29 31 34 35 34 32 32 29 28 27 25 25 25 21 18 15 11 8
17 24 30 35 34 46 37 31 36 39 38 27 31 31 24 14 17 15 13 14 13 11 11 13 13 14 15 18 22 26 30 32 31 27 27 28 30 32 33 34 32 30 28 26 26 25 23 23 22 17 13 11 7 5
19 32 35 36 41 43 39 35 39 38 31 29 30 27 19 12 15 10 15 13 11 11 12 12 12 13 16 20 25 29 29 27 24 25 27 30 30 31 31 30 29 28 28 28 26 22 20 20 19 15 11 9 8 5
37 40 37 40 40 38 39 36 33 31 27 28 32 30 23 18 14 14 13 10 10 11 11 11 11 14 18 23 27 27 25 22 22 22 24 25 26 27 26 25 25 25 25 25 26 23 19 17 16 14 12 9 6 3
45 41 43 43 45 40 36 33 31 29 28 27 26 26 24 19 16 13 10 11 12 11 9 10 12 15 20 25 26 24 22 22 21 23 24 25 25 24 23 22 22 23 23 23 22 21 18 15 14 12 10 7 4 2
46 42 43 41 37 38 34 31 28 24 20 21 20 20 21 19 16 13 12 12 10 9 9 10 13 18 21 21 20 20 20 20 21 22 23 24 24 23 22 21 21 21 21 22 21 20 18 15 13 12 10 8 6 6
46 44 43 42 38 36 30 27 23 22 24 24 23 22 19 15 13 13 12 11 9 8 9 12 15 19 19 18 19 18 18 19 21 21 22 22 22 22 20 20 20 21 21 21 20 20 19 17 14 12 10 10 9 9
44 41 40 40 38 33 30 30 28 28 28 25 21 17 15 14 13 12 11 10 9 9 10 13 16 17 17 17 18 17 17 19 19 20 20 19 19 18 18 19 19 19 20 20 20 20 19 18 17 15 12 10 10 10
Wind_Direction
328 332 328 333 336 336 346 353 325 321 147 154 180 189 176 160 171 177 182 187 184 184 192 190 192 195 193 193 191 186 182 190 189 192 199 191 205 199 205 202 202 211 206 216 223 213 252 224 219 226 254 273 270 263
326 331 329 332 332 335 345 348 316 317 196 188 186 189 181 175 174 176 183 186 185 188 194 191 194 196 194 198 194 197 196 202 201 197 204 211 210 199 212 212 214 213 214 217 210 217 234 235 226 245 258 271 277 276
322 326 324 329 325 333 341 356 326 266 220 187 193 193 180 178 176 174 174 182 191 191 186 187 187 188 188 190 193 202 206 204 207 210 211 219 216 221 217 230 225 235 235 240 241 247 252 262 266 269 273 274 279 284
316 318 317 322 316 325 329 347 306 228 198 195 193 196 184 177 174 169 172 177 184 188 197 182 183 186 189 186 184 192 198 205 204 218 224 225 228 243 237 245 240 240 247 247 252 261 267 268 272 276 279 279 285 286
311 314 306 309 301 270 229 251 220 229 202 187 201 178 168 173 170 169 172 176 173 173 224 183 180 182 187 193 198 200 205 211 219 226 230 233 237 253 258 256 253 251 253 257 261 270 270 271 272 274 275 283 287 289
304 305 290 291 260 217 216 233 225 219 184 195 197 190 178 183 172 172 170 173 167 177 168 167 181 179 181 188 193 193 201 210 217 223 231 235 230 229 249 248 253 250 247 251 260 267 271 269 267 272 276 283 286 287
294 292 272 268 237 211 208 238 217 193 176 178 171 164 176 188 172 164 164 161 160 158 164 166 163 174 173 179 177 183 188 192 198 207 216 220 222 230 246 254 264 267 257 263 268 272 269 270 274 278 281 280 278 281
286 265 257 246 224 201 197 171 185 180 177 176 169 172 176 176 157 160 155 148 142 145 147 166 167 162 162 166 168 175 181 186 194 202 214 224 232 240 252 258 260 264 265 271 276 279 281 282 280 280 280 279 282 287
273 242 244 235 212 195 188 179 177 188 180 173 167 176 169 160 149 147 151 154 155 158 176 194 175 175 170 166 171 175 183 192 207 219 226 234 237 230 245 258 267 275 279 283 285 288 290 290 290 290 290 291 293 293
250 232 236 225 203 188 183 172 179 174 176 166 175 170 166 151 144 144 146 158 165 190 215 212 178 177 178 178 178 176 190 199 220 223 233 242 250 250 253 266 277 284 289 290 291 293 293 291 291 292 293 296 298 302
240 226 229 219 197 186 181 173 182 174 172 170 166 170 161 155 150 158 171 182 197 215 207 172 174 178 178 178 181 182 194 214 232 218 209 239 261 269 263 275 291 300 304 300 299 298 297 297 299 301 305 307 309 311
233 226 224 213 192 184 183 175 181 172 170 166 165 163 146 141 158 183 188 194 196 203 179 170 170 166 173 174 177 205 225 222 250 205 211 248 285 346 344 324 318 315 309 305 303 301 300 301 303 306 309 309 311 311
226 218 215 201 184 188 176 174 174 178 174 164 166 171 168 181 194 193 192 185 191 176 176 171 164 164 171 179 198 215 235 233 238 217 236 213 12 337 331 322 317 313 309 305 301 300 302 304 306 308 310 310 310 310
215 208 197 189 175 165 166 167 174 176 167 174 167 176 185 202 208 200 190 188 188 171 169 170 174 166 172 186 196 223 231 245 230 221 189 317 326 326 323 318 313 310 308 305 302 302 303 304 307 310 311 311 310 309
203 194 195 182 171 170 174 171 171 174 172 169 175 187 208 204 205 197 181 177 176 167 168 169 171 171 174 178 193 223 230 233 228 240 303 311 315 317 317 316 314 312 308 306 304 304 304 306 309 310 309 309 305 304
194 189 190 181 178 176 177 168 171 176 175 177 195 197 202 207 195 181 172 169 173 167 164 168 171 177 194 195 198 214 222 222 282 302 304 307 312 317 316 315 313 312 312 310 308 307 309 310 309 308 307 306 304 299
191 192 189 179 184 173 173 171 174 177 175 191 200 188 197 197 185 176 169 166 163 164 166 162 171 179 179 212 209 210 255 287 293 298 305 309 314 315 315 316 315 315 313 311 309 309 308 308 307 307 305 303 298 294
198 196 178 177 177 173 174 174 173 171 185 185 187 192 193 185 172 169 159 160 162 164 168 167 170 190 199 196 221 282 295 298 301 306 309 313 317 317 317 317 316 314 312 311 309 309 307 307 307 307 304 302 298 295
197 192 181 181 180 176 174 176 170 179 182 186 192 196 185 174 164 157 158 160 161 164 167 163 179 188 219 243 303 316 312 308 310 314 315 315 316 318 319 318 316 313 311 310 309 307 306 305 307 306 303 303 300 296
188 188 182 180 176 173 168 178 168 175 181 185 193 185 174 163 158 158 158 161 166 171 173 173 185 190 277 313 320 319 317 317 318 319 320 316 315 318 318 317 317 315 313 312 309 305 305 305 302 301 300 303 300 298
190 191 185 178 170 166 171 169 170 177 175 186 188 173 166 163 163 163 165 167 174 170 160 108 57 330 319 321 324 324 323 322 322 321 318 316 316 316 315 317 318 316 315 313 311 310 308 305 302 299 297 299 296 297
188 184 181 177 166 154 164 167 167 171 185 187 174 168 166 167 168 166 166 175 173 161 104 354 314 316 321 325 325 325 326 325 323 321 321 320 318 317 319 321 319 319 318 316 314 313 311 308 304 301 299 298 297 296
179 176 181 165 153 161 165 166 166 177 174 174 169 170 170 170 171 169 179 180 179 180 313 304 304 312 317 319 319 324 327 326 323 319 316 314 316 318 321 318 317 319 320 318 317 315 311 308 305 302 300 298 297 295
177 165 159 154 169 169 161 168 174 179 169 168 172 172 172 173 175 181 191 189 207 243 284 290 299 304 307 311 318 324 324 323 320 316 315 316 317 320 320 320 322 323 323 324 323 320 317 313 309 305 302 300 297 294
163 164 165 164 174 167 166 170 174 178 173 166 171 174 175 176 182 197 205 213 237 264 273 286 292 295 303 312 318 320 321 320 318 319 317 319 323 327 325 326 328 328 329 329 330 331 327 321 317 313 310 306 300 295
160 164 162 168 169 169 167 172 177 179 171 163 171 176 176 184 196 213 220 235 249 253 269 280 286 293 304 312 317 321 320 320 322 322 323 325 329 332 331 334 337 336 335 335 338 337 333 332 333 330 326 325 313 306
166 168 171 170 168 170 169 171 174 177 168 178 177 176 178 189 210 218 217 239 246 249 267 278 287 297 306 316 319 320 320 324 324 325 327 329 334 334 337 338 338 338 339 342 343 341 342 346 350 349 345 343 340 329
162 162 167 167 164 170 168 162 168 174 182 190 186 192 197 201 204 198 206 212 230 258 271 282 292 303 315 318 319 320 325 325 327 329 331 333 337 339 341 339 338 341 344 345 348 348 347 351 354 358 360 359 352 355
158 156 162 161 161 163 168 170 174 177 180 181 189 197 198 202 206 204 211 231 251 262 274 286 302 314 316 317 320 323 326 329 330 330 332 336 339 340 340 339 342 348 350 348 347 350 347 348 350 349 349 348 348 360
158 158 159 161 162 160 166 174 174 177 187 196 203 206 207 206 207 216 232 249 256 264 278 297 308 313 317 322 323 326 329 329 333 336 339 342 344 343 343 344 348 353 354 355 354 350 347 347 352 353 351 351 345 329
161 162 160 161 164 171 171 177 187 187 183 190 192 195 198 198 206 224 237 244 251 267 286 301 311 318 319 318 325 330 329 332 337 340 342 343 344 344 346 349 354 355 356 360 2 359 354 350 345 344 340 333 320 301
166 171 175 178 175 185 192 185 182 181 182 183 180 184 193 208 219 230 234 241 254 272 290 304 315 316 317 327 333 332 331 336 341 343 344 345 343 345 347 353 357 358 359 3 4 5 4 359 352 342 332 323 311 297
173 176 182 189 184 178 178 171 175 175 178 181 189 197 209 220 224 232 235 242 255 276 293 306 312 316 327 333 331 333 336 340 342 343 342 341 345 348 354 358 358 0 2 5 8 8 6 6 4 1 355 341 325 311